Olympia, Washington, United States (98501)
Lat: 47.04N, Lon: 122.9W
Wx Zone: WAZ504
Local Info
Past Weather Observations for Today

NOTE: This archive is for the closest National Weather Service station to Olympia. Information may differ from the station used for current weather conditions.

Click here for Long-term Archive

Time Weather Temperature Dewpoint Humidity Pressure Winds Precip Visibility
22:54
Clear
28°F / -2°C 27°F / -3°C 93% 30.15 in
(1021 mb)
SW 3.5 mph
(SW 6 kph)
- 9SM
21:54
Clear
32°F / 0°C 28°F / -2°C 87% 30.12 in
(1020 mb)
Calm - 9SM
20:54
Clear
32°F / 0°C 28°F / -2°C 87% 30.12 in
(1020 mb)
Calm - 10SM
19:54
Clear
36°F / 2°C 30°F / -1°C 81% 30.09 in
(1019 mb)
Calm - 10SM
18:54
Clear
43°F / 6°C 30°F / -1°C 61% 30.06 in
(1018 mb)
E 3.5 mph
(E 6 kph)
- 10SM
18:45
Clear
39°F / 4°C 32°F / 0°C 75% 30.06 in
(1018 mb)
E 3.5 mph
(E 6 kph)
- 10SM
17:54
Clear
48°F / 9°C 30°F / -1°C 50% 30.06 in
(1018 mb)
NE 5.8 mph
(NE 9 kph)
- 10SM
16:54
Partly Cloudy
50°F / 10°C 34°F / 1°C 54% 30.04 in
(1017 mb)
ENE 3.5 mph
(ENE 6 kph)
- 10SM
15:54
Partly Cloudy
52°F / 11°C 34°F / 1°C 50% 30.04 in
(1017 mb)
NE 6.9 mph
(NE 11 kph)
- 10SM
14:54
Partly Cloudy
52°F / 11°C 34°F / 1°C 50% 30.04 in
(1017 mb)
ENE 9.2 mph
(ENE 15 kph)
- 10SM
13:54
Partly Cloudy
52°F / 11°C 36°F / 2°C 54% 30.04 in
(1017 mb)
ENE 10.4 mph
(ENE 17 kph)
- 10SM
12:54
Partly Cloudy
50°F / 10°C 36°F / 2°C 58% 30.04 in
(1017 mb)
NE 8.1 mph
(NE 13 kph)
- 10SM
11:54
Partly Cloudy
48°F / 9°C 36°F / 2°C 62% 30.06 in
(1018 mb)
NE 13.8 mph
(NE 22 kph)
- 10SM
10:54
Partly Cloudy
46°F / 8°C 36°F / 2°C 66% 30.04 in
(1017 mb)
ENE 11.5 mph
(ENE 19 kph)
- 10SM
09:54
Mostly Cloudy
45°F / 7°C 36°F / 2°C 71% 30.06 in
(1018 mb)
NE 12.7 mph
(NE 20 kph)
- 10SM
08:54
Mostly Cloudy
43°F / 6°C 36°F / 2°C 76% 30.04 in
(1017 mb)
NE 8.1 mph
(NE 13 kph)
- 10SM
07:54
Overcast
43°F / 6°C 36°F / 2°C 76% 30.04 in
(1017 mb)
NE 9.2 mph
(NE 15 kph)
- 10SM
06:54
Overcast
43°F / 6°C 36°F / 2°C 76% 30.01 in
(1016 mb)
NNE 8.1 mph
(NNE 13 kph)
- 10SM
05:54
Overcast
43°F / 6°C 36°F / 2°C 76% 30.01 in
(1016 mb)
NE 8.1 mph
(NE 13 kph)
- 10SM
05:08
Overcast
43°F / 6°C 37°F / 3°C 81% 30.01 in
(1016 mb)
NNE 5.8 mph
(NNE 9 kph)
- 10SM
04:54
Overcast
43°F / 6°C 37°F / 3°C 81% 29.98 in
(1015 mb)
NNE 6.9 mph
(NNE 11 kph)
- 10SM
03:54
Overcast
43°F / 6°C 37°F / 3°C 81% 29.98 in
(1015 mb)
N 9.2 mph
(N 15 kph)
- 10SM
02:54
Overcast
43°F / 6°C 37°F / 3°C 81% 29.98 in
(1015 mb)
NE 8.1 mph
(NE 13 kph)
- 10SM
01:54
Overcast
43°F / 6°C 39°F / 4°C 87% 29.98 in
(1015 mb)
NE 4.6 mph
(NE 7 kph)
0.00 in
(0.00 mm)
10SM
00:54
Overcast
Light Rain
43°F / 6°C 37°F / 3°C 81% 29.98 in
(1015 mb)
NE 5.8 mph
(NE 9 kph)
0.00 in
(0.00 mm)
10SM
Time Weather Temperature Dewpoint Humidity Pressure Winds Precip Visibility


Weather for websites

WeatherForYou.com, LLC is not responsible for any damages or problems caused by this service. Current weather conditions are obtained from the closest station including government and personal stations which may have varying degrees of accuracy. Weather forecasts are derived from the NOAA NDFD. Like all things, this site belongs to Jesus Christ... He just trusts me to maintain it. If you have any questions or comments email webmaster@weatherforyou.com

Copyright © 2015, WeatherForYou.com LLC. All rights reserved.